Home   Weather   Leverkusen   Past weeks

Flag for Germany Past Weather in Leverkusen, North Rhine-Westphalia, Germany — Yesterday and Last 2 Weeks

Now
64 °F

Passing clouds.


Feels Like: 64 °F
Forecast: 51 / 69 °F
Wind: 3 mph from West

Location: Koeln / Bonn

Current Time: Sep 27, 2016 at 12:25:45 PM

Latest Report: Sep 27, 2016 at 11:50 AM


Visibility: N/A

Pressure: 30.30 "Hg

Humidity: 64%

Dew Point: 52 °F

Location of LeverkusenLocation

Past Weather in Leverkusen — Graph

°F

Leverkusen Temperature Yesterday

Maximum temperature yesterday: 68 °F (at 1:50 PM)
Minimum temperature yesterday: 50 °F (at 7:20 AM)
Average temperature yesterday: 59 °F

High & Low Weather Summary for the Past Weeks

 TemperatureHumidityPressure
High90 °F (Sep 13, 2:50 PM)100% (Sep 17, 2:20 AM)30.30 "Hg (Sep 17, 2:20 AM)
Low43 °F (Sep 22, 2:50 AM)29% (Sep 14, 4:20 PM)29.80 "Hg (Sep 15, 12:50 PM)
Average64 °F71%30.06 "Hg
* Reported Sep 12 11:20 AM — Sep 27 11:20 AM, Leverkusen, Weather by CustomWeather, © 2016

Note: Actual official high and low records may vary slightly from our data, if they occured in-between our weather recording intervals... More about our weather records

Advertising

Leverkusen Weather History for the Previous 24 Hours

Scroll right to see more
 ConditionsComfort  
Time TempWeatherWind HumidityBarometerVisibility
11:20 AM
Tue, Sep 27
64 °FSunny.1 mph64%30.30 "Hg10 mi
10:50 AM61 °FSunny.2 mph72%30.30 "Hg10 mi
10:20 AM59 °FPassing clouds.2 mph77%30.30 "HgN/A
9:50 AM55 °FPassing clouds.3 mph82%30.30 "HgN/A
9:20 AM54 °FPassing clouds.5 mph88%30.30 "HgN/A
8:50 AM54 °FPassing clouds.2 mph88%30.30 "HgN/A
8:20 AM48 °FPassing clouds.1 mph94%30.30 "HgN/A
7:50 AM46 °FFog.1 mph100%30.27 "HgN/A
7:20 AM48 °FFog.2 mph100%30.27 "HgN/A
6:50 AM46 °FFog.5 mph100%30.27 "HgN/A
6:20 AM50 °FPassing clouds.1 mph94%30.27 "HgN/A
5:50 AM50 °FPassing clouds.2 mph94%30.27 "HgN/A
5:20 AM48 °FPassing clouds.3 mph94%30.27 "HgN/A
4:50 AM52 °FPassing clouds.2 mph88%30.24 "HgN/A
4:20 AM52 °FPassing clouds.1 mph88%30.24 "HgN/A
3:50 AM52 °FPassing clouds.No wind88%30.24 "HgN/A
3:20 AM54 °FPassing clouds.2 mph82%30.24 "HgN/A
2:50 AM54 °FPassing clouds.3 mph88%30.24 "HgN/A
2:20 AM55 °FPartly cloudy.3 mph82%30.24 "HgN/A
1:50 AM55 °FPartly cloudy.2 mph82%30.24 "HgN/A
1:20 AM55 °FPartly cloudy.2 mph82%30.24 "HgN/A
12:50 AM55 °FPartly cloudy.No wind82%30.24 "HgN/A
12:20 AM55 °FPartly cloudy.1 mph77%30.24 "HgN/A
11:50 PM
Mon, Sep 26
55 °FClear.1 mph77%30.24 "Hg10 mi
11:20 PM54 °FClear.No wind82%30.24 "Hg10 mi
10:50 PM55 °FPassing clouds.1 mph77%30.24 "HgN/A
10:20 PM55 °FClear.No wind77%30.24 "Hg10 mi
9:50 PM55 °FClear.No wind77%30.24 "Hg10 mi
9:20 PM59 °FClear.5 mph68%30.24 "Hg10 mi
8:50 PM59 °FClear.5 mph68%30.24 "Hg10 mi
8:20 PM59 °FClear.5 mph68%30.21 "Hg10 mi
7:50 PM59 °FClear.5 mph68%30.21 "Hg10 mi
7:20 PM61 °FClear.6 mph63%30.21 "Hg10 mi
6:50 PM63 °FPassing clouds.5 mph59%30.21 "HgN/A
6:20 PM63 °FSunny.5 mph64%30.18 "Hg10 mi
5:50 PM64 °FSunny.5 mph56%30.18 "Hg10 mi
5:20 PM66 °FSunny.8 mph49%30.18 "Hg10 mi
4:50 PM68 °FPassing clouds.6 mph43%30.18 "HgN/A
4:20 PM68 °FSunny.3 mph43%30.18 "Hg10 mi
3:50 PM68 °FScattered clouds.3 mph43%30.21 "HgN/A
3:20 PM68 °FPassing clouds.5 mph46%30.21 "HgN/A
2:50 PM68 °FPassing clouds.2 mph49%30.21 "HgN/A
2:20 PM68 °FScattered clouds.6 mph46%30.21 "HgN/A
1:50 PM68 °FScattered clouds.3 mph53%30.21 "HgN/A
1:20 PM66 °FScattered clouds.3 mph56%30.21 "HgN/A
12:50 PM66 °FPassing clouds.3 mph56%30.21 "HgN/A
12:20 PM66 °FPassing clouds.3 mph60%30.24 "HgN/A
Weather by CustomWeather, © 2016

See weather overviewHow to use our weather pages